This is the latest recevied weather packets stored in our database for station/object IK3ZGB. If no packets are shown the sender has not sent any weather packets the latest 10 day(s).
| Time | Temp. | Humidity | Pressure | Rain* | Wind** | Luminosity | Snow |
|---|---|---|---|---|---|---|---|
| 1777587525 | 14.44° C | 52% | 1028.5 hPa | - | - | - | - |
| 1777586925 | 14.44° C | 53% | 1028.3 hPa | - | - | - | - |
| 1777586325 | 13.89° C | 56% | 1028.3 hPa | - | - | - | - |
| 1777585725 | 14.44° C | 58% | 1028.2 hPa | - | - | - | - |
| 1777585125 | 14.44° C | 58% | 1028 hPa | - | - | - | - |
| 1777584525 | 14.44° C | 59% | 1028 hPa | - | - | - | - |
| 1777583925 | 14.44° C | 60% | 1028.1 hPa | - | - | - | - |
| 1777583324 | 14.44° C | 61% | 1027.7 hPa | - | - | - | - |
| 1777582723 | 14.44° C | 60% | 1027.6 hPa | - | - | - | - |
| 1777582124 | 13.89° C | 60% | 1027.6 hPa | - | - | - | - |
| 1777581524 | 13.89° C | 60% | 1027.5 hPa | - | - | - | - |
| 1777580924 | 13.89° C | 60% | 1027.6 hPa | - | - | - | - |
| 1777580324 | 14.44° C | 59% | 1027.5 hPa | - | - | - | - |
| 1777579723 | 14.44° C | 58% | 1027.4 hPa | - | - | - | - |
| 1777579450 | 14.44° C | 58% | 1027 hPa | - | - | - | - |
| 1777578849 | 14.44° C | 58% | 1026.9 hPa | - | - | - | - |
| 1777578250 | 15° C | 57% | 1026.7 hPa | - | - | - | - |
| 1777577649 | 15.56° C | 57% | 1026.7 hPa | - | - | - | - |
| 1777577050 | 15° C | 56% | 1026.5 hPa | - | - | - | - |
| 1777576450 | 15.56° C | 55% | 1026.5 hPa | - | - | - | - |
| 1777575850 | 15.56° C | 54% | 1025.9 hPa | - | - | - | - |
| 1777575249 | 16.11° C | 52% | 1026.1 hPa | - | - | - | - |
| 1777574650 | 16.67° C | 52% | 1025.5 hPa | - | - | - | - |
| 1777574050 | 16.67° C | 52% | 1025.5 hPa | - | - | - | - |
| 1777573449 | 16.67° C | 50% | 1025.5 hPa | - | - | - | - |
* Rain since midnight (hover to see other rain measurements)
** Current wind speed in m/s (hover to see current wind gust speed)